| time (UTC) | temp C | wind direction | speed KPH | gust KPH | rain 1hr cm | rain 24hr cm | rain mn cm | humidity % | barometer mb |
| 20260901043849 | 10 | 147 | 0.0 | 0.0 | 0.00 | 0.08 | 0.00 | 41 | 1020.0 |
| 20260901043343 | 10 | 148 | 0.0 | 3.2 | 0.00 | 0.08 | 0.00 | 41 | 1020.0 |
| 20260901043246 | 10 | 148 | 0.0 | 3.2 | 0.00 | 0.08 | 0.00 | 41 | 1020.0 |
| 20260901042644 | 10 | 147 | 3.2 | 3.2 | 0.00 | 0.08 | 0.00 | 40 | 1020.0 |
| 20260901041437 | 10 | 147 | 3.2 | 3.2 | 0.00 | 0.08 | 0.00 | 39 | 1020.0 |
| 20260901040833 | 10 | 147 | 3.2 | 4.8 | 0.00 | 0.08 | 0.00 | 39 | 1020.0 |
| 20260901040229 | 11 | 148 | 4.8 | 4.8 | 0.00 | 0.08 | 0.00 | 38 | 1020.0 |
| 20260901035626 | 11 | 176 | 0.0 | 0.0 | 0.00 | 0.08 | 0.00 | 38 | 1020.0 |
| 20260901035021 | 11 | 175 | 0.0 | 3.2 | 0.00 | 0.08 | 0.00 | 38 | 1020.0 |
| 20260901034417 | 11 | 176 | 3.2 | 3.2 | 0.00 | 0.08 | 0.00 | 38 | 1020.0 |
| 20260901033813 | 11 | 175 | 0.0 | 0.0 | 0.00 | 0.08 | 0.00 | 37 | 1020.0 |
| 20260901033212 | 11 | 176 | 0.0 | 0.0 | 0.00 | 0.08 | 0.00 | 37 | 1020.0 |
| 20260901032607 | 11 | 176 | 0.0 | 3.2 | 0.00 | 0.08 | 0.00 | 37 | 1020.0 |
| 20260901032002 | 11 | 175 | 4.8 | 4.8 | 0.00 | 0.08 | 0.00 | 37 | 1020.0 |
| 20260901031400 | 11 | 175 | 3.2 | 4.8 | 0.00 | 0.08 | 0.00 | 36 | 1020.0 |
| 20260901030800 | 12 | 175 | 0.0 | 0.0 | 0.00 | 0.08 | 0.00 | 36 | 1020.0 |
| 20260901030159 | 12 | 176 | 0.0 | 3.2 | 0.00 | 0.08 | 0.00 | 36 | 1020.0 |
| 20260901024954 | 12 | 176 | 3.2 | 3.2 | 0.00 | 0.08 | 0.00 | 35 | 1021.0 |
| 20260901024351 | 13 | 176 | 0.0 | 0.0 | 0.00 | 0.08 | 0.00 | 35 | 1021.0 |
| 20260901023146 | 13 | 175 | 0.0 | 0.0 | 0.00 | 0.08 | 0.00 | 35 | 1021.0 |
| 20260901021943 | 13 | 176 | 3.2 | 3.2 | 0.00 | 0.08 | 0.00 | 34 | 1021.0 |
| 20260901021340 | 13 | 175 | 0.0 | 0.0 | 0.00 | 0.08 | 0.00 | 33 | 1021.0 |
| 20260901020133 | 13 | 175 | 3.2 | 3.2 | 0.00 | 0.08 | 0.00 | 29 | 1021.0 |
| 20260901015527 | 13 | 175 | 0.0 | 0.0 | 0.00 | 0.08 | 0.00 | 29 | 1021.0 |
| 20260901014922 | 13 | 175 | 0.0 | 0.0 | 0.00 | 0.08 | 0.00 | 29 | 1021.0 |
| 20260901013718 | 14 | 175 | 0.0 | 0.0 | 0.00 | 0.08 | 0.00 | 29 | 1021.0 |
| 20260901013114 | 14 | 175 | 0.0 | 3.2 | 0.00 | 0.08 | 0.00 | 28 | 1021.0 |
| 20260901011909 | 14 | 175 | 0.0 | 0.0 | 0.00 | 0.08 | 0.00 | 27 | 1021.0 |
| 20260901011307 | 15 | 175 | 0.0 | 0.0 | 0.00 | 0.08 | 0.00 | 26 | 1021.0 |
| 20260901010703 | 15 | 176 | 0.0 | 0.0 | 0.00 | 0.08 | 0.00 | 25 | 1021.0 |
| 20260901004903 | 16 | 176 | 0.0 | 0.0 | 0.00 | 0.08 | 0.00 | 25 | 1020.0 |
| 20260901004301 | 16 | 176 | 0.0 | 3.2 | 0.00 | 0.08 | 0.00 | 24 | 1020.0 |
| 20260901003054 | 16 | 176 | 4.8 | 4.8 | 0.00 | 0.08 | 0.00 | 24 | 1021.0 |
| 20260901001846 | 16 | 175 | 6.4 | 6.4 | 0.00 | 0.08 | 0.00 | 24 | 1021.0 |
| 20260901001245 | 16 | 173 | 4.8 | 6.4 | 0.00 | 0.08 | 0.00 | 24 | 1021.0 |
| 20260831234832 | 16 | 168 | 4.8 | 4.8 | 0.00 | 0.08 | 0.00 | 24 | 1020.0 |
| 20260831234230 | 16 | 161 | 3.2 | 6.4 | 0.00 | 0.08 | 0.00 | 24 | 1020.0 |
| 20260831233628 | 16 | 175 | 6.4 | 8.0 | 0.00 | 0.08 | 0.00 | 24 | 1021.0 |
| 20260831233023 | 16 | 192 | 8.0 | 8.0 | 0.00 | 0.08 | 0.00 | 24 | 1021.0 |
| 20260831231219 | 16 | 178 | 4.8 | 6.4 | 0.00 | 0.08 | 0.00 | 24 | 1020.0 |
| 20260831230018 | 16 | 171 | 3.2 | 3.2 | 0.00 | 0.08 | 0.00 | 24 | 1020.0 |
| 20260831225414 | 16 | 171 | 0.0 | 4.8 | 0.00 | 0.08 | 0.00 | 24 | 1020.0 |
| 20260831224210 | 16 | 167 | 4.8 | 4.8 | 0.00 | 0.08 | 0.00 | 25 | 1020.0 |
| 20260831223605 | 16 | 175 | 0.0 | 3.2 | 0.00 | 0.08 | 0.00 | 24 | 1020.0 |
| 20260831223003 | 16 | 175 | 0.0 | 0.0 | 0.00 | 0.08 | 0.00 | 24 | 1020.0 |
| 20260831221758 | 16 | 174 | 3.2 | 3.2 | 0.00 | 0.08 | 0.00 | 24 | 1020.0 |
| 20260831220550 | 16 | 174 | 4.8 | 4.8 | 0.00 | 0.08 | 0.00 | 24 | 1020.0 |
| 20260831215344 | 16 | 174 | 4.8 | 4.8 | 0.00 | 0.00 | 0.00 | 24 | 1020.0 |
| 20260831214743 | 16 | 179 | 4.8 | 4.8 | 0.00 | 0.00 | 0.00 | 24 | 1020.0 |
| 20260831214144 | 16 | 161 | 0.0 | 3.2 | 0.00 | 0.00 | 0.00 | 25 | 1020.0 |
| 20260831212940 | 16 | 160 | 0.0 | 0.0 | 0.00 | 0.00 | 0.00 | 24 | 1020.0 |
| 20260831212337 | 16 | 159 | 0.0 | 0.0 | 0.00 | 0.00 | 0.00 | 24 | 1020.0 |
| 20260831211734 | 16 | 160 | 0.0 | 0.0 | 0.00 | 0.00 | 0.00 | 24 | 1020.0 |
| 20260831211132 | 16 | 160 | 0.0 | 0.0 | 0.00 | 0.00 | 0.00 | 24 | 1020.0 |
| 20260831205322 | 17 | 159 | 0.0 | 0.0 | 0.00 | 0.00 | 0.00 | 24 | 1020.0 |
| 20260831204719 | 17 | 159 | 0.0 | 3.2 | 0.00 | 0.00 | 0.00 | 24 | 1020.0 |
| 20260831203515 | 17 | 160 | 4.8 | 4.8 | 0.00 | 0.00 | 0.00 | 24 | 1020.0 |
| 20260831201705 | 17 | 160 | 0.0 | 0.0 | 0.00 | 0.00 | 0.00 | 23 | 1020.0 |
| 20260831201058 | 17 | 160 | 0.0 | 0.0 | 0.00 | 0.00 | 0.00 | 23 | 1020.0 |
| 20260831200727 | 17 | 160 | 0.0 | 0.0 | 0.00 | 0.00 | 0.00 | 23 | 1020.0 |
| 20260831200453 | 17 | 160 | 0.0 | 0.0 | 0.00 | 0.00 | 0.00 | 23 | 1020.0 |
| 20260831195852 | 17 | 160 | 0.0 | 0.0 | 0.00 | 0.00 | 0.00 | 23 | 1020.0 |
| 20260831194044 | 18 | 188 | 3.2 | 4.8 | 0.00 | 0.00 | 0.00 | 23 | 1020.0 |
| 20260831193106 | 18 | 152 | 6.4 | 6.4 | 0.00 | 0.00 | 0.00 | 23 | 1020.0 |
| 20260831192841 | 18 | 152 | 6.4 | 6.4 | 0.00 | 0.00 | 0.00 | 23 | 1020.0 |
| 20260831192240 | 18 | 281 | 3.2 | 3.2 | 0.00 | 0.00 | 0.00 | 23 | 1019.0 |
| 20260831191640 | 18 | 168 | 4.8 | 4.8 | 0.00 | 0.00 | 0.00 | 23 | 1019.0 |
| 20260831190438 | 18 | 172 | 4.8 | 4.8 | 0.00 | 0.00 | 0.00 | 24 | 1019.0 |
| 20260831185836 | 18 | 161 | 4.8 | 4.8 | 0.00 | 0.00 | 0.00 | 26 | 1019.0 |
| 20260831185244 | 18 | 178 | 3.2 | 3.2 | 0.00 | 0.00 | 0.00 | 28 | 1019.0 |
| 20260831185235 | 18 | 178 | 3.2 | 3.2 | 0.00 | 0.00 | 0.00 | 28 | 1019.0 |
| 20260831184029 | 17 | 155 | 0.0 | 0.0 | 0.00 | 0.00 | 0.00 | 29 | 1018.0 |
| 20260831183421 | 18 | 164 | 0.0 | 0.0 | 0.00 | 0.00 | 0.00 | 28 | 1018.0 |
| 20260831182218 | 18 | 164 | 0.0 | 0.0 | 0.00 | 0.00 | 0.00 | 27 | 1018.0 |
| 20260831181612 | 18 | 164 | 4.8 | 4.8 | 0.00 | 0.00 | 0.00 | 28 | 1018.0 |
| 20260831181011 | 18 | 153 | 4.8 | 4.8 | 0.00 | 0.00 | 0.00 | 28 | 1018.0 |
| 20260831175804 | 18 | 171 | 0.0 | 0.0 | 0.00 | 0.00 | 0.00 | 29 | 1018.0 |
| 20260831175201 | 18 | 171 | 3.2 | 3.2 | 0.00 | 0.00 | 0.00 | 28 | 1017.0 |
| 20260831174600 | 18 | 164 | 3.2 | 3.2 | 0.00 | 0.00 | 0.00 | 28 | 1017.0 |
| 20260831173956 | 18 | 163 | 4.8 | 4.8 | 0.00 | 0.00 | 0.00 | 28 | 1017.0 |
| 20260831173352 | 18 | 169 | 6.4 | 6.4 | 0.00 | 0.00 | 0.00 | 29 | 1017.0 |
| 20260831172149 | 19 | 168 | 4.8 | 4.8 | 0.00 | 0.00 | 0.00 | 27 | 1017.0 |
| 20260831171548 | 19 | 169 | 0.0 | 0.0 | 0.00 | 0.00 | 0.00 | 26 | 1017.0 |
| 20260831165138 | 20 | 158 | 3.2 | 4.8 | 0.00 | 0.00 | 0.00 | 23 | 1017.0 |
| 20260831163936 | 20 | 196 | 3.2 | 8.0 | 0.00 | 0.00 | 0.00 | 22 | 1017.0 |
| 20260831160921 | 20 | 177 | 6.4 | 6.4 | 0.00 | 0.00 | 0.00 | 22 | 1017.0 |
| 20260831160319 | 20 | 165 | 9.7 | 9.7 | 0.00 | 0.00 | 0.00 | 22 | 1017.0 |
| 20260831155718 | 20 | 184 | 6.4 | 9.7 | 0.00 | 0.00 | 0.00 | 22 | 1017.0 |
| 20260831154515 | 20 | 152 | 8.0 | 9.7 | 0.00 | 0.00 | 0.00 | 22 | 1017.0 |
| 20260831153912 | 20 | 196 | 4.8 | 6.4 | 0.00 | 0.00 | 0.00 | 23 | 1017.0 |
| 20260831153308 | 20 | 197 | 6.4 | 6.4 | 0.00 | 0.00 | 0.00 | 23 | 1017.0 |
| 20260831152707 | 20 | 209 | 4.8 | 4.8 | 0.00 | 0.00 | 0.00 | 23 | 1017.0 |
| 20260831152105 | 20 | 173 | 4.8 | 4.8 | 0.00 | 0.00 | 0.00 | 23 | 1017.0 |
| 20260831151504 | 20 | 160 | 3.2 | 4.8 | 0.00 | 0.00 | 0.00 | 23 | 1017.0 |
| 20260831150902 | 20 | 156 | 3.2 | 6.4 | 0.00 | 0.00 | 0.00 | 23 | 1017.0 |
| 20260831150257 | 20 | 154 | 4.8 | 4.8 | 0.00 | 0.00 | 0.00 | 23 | 1017.0 |
| 20260831145656 | 20 | 163 | 4.8 | 8.0 | 0.00 | 0.00 | 0.00 | 23 | 1017.0 |
| 20260831145052 | 20 | 161 | 4.8 | 6.4 | 0.00 | 0.00 | 0.00 | 22 | 1017.0 |
| 20260831143242 | 21 | 147 | 6.4 | 6.4 | 0.00 | 0.00 | 0.00 | 22 | 1017.0 |
| 20260831141432 | 20 | 160 | 4.8 | 6.4 | 0.00 | 0.00 | 0.00 | 30 | 1017.0 |
| 20260831140829 | 19 | 160 | 4.8 | 4.8 | 0.00 | 0.00 | 0.00 | 28 | 1017.0 |
| 20260831135014 | 20 | 166 | 4.8 | 8.0 | 0.00 | 0.00 | 0.00 | 26 | 1017.0 |
| 20260831134414 | 20 | 160 | 4.8 | 8.0 | 0.00 | 0.00 | 0.00 | 25 | 1017.0 |
| 20260831133809 | 20 | 156 | 3.2 | 4.8 | 0.00 | 0.00 | 0.00 | 28 | 1018.0 |
| 20260831132605 | 19 | 149 | 3.2 | 4.8 | 0.00 | 0.00 | 0.00 | 32 | 1018.0 |
| 20260831132004 | 18 | 155 | 4.8 | 8.0 | 0.00 | 0.00 | 0.00 | 30 | 1018.0 |
| 20260831124953 | 19 | 151 | 4.8 | 4.8 | 0.00 | 0.00 | 0.00 | 32 | 1018.0 |
| 20260831123751 | 19 | 161 | 8.0 | 8.0 | 0.00 | 0.00 | 0.00 | 28 | 1018.0 |
| 20260831122548 | 19 | 168 | 4.8 | 6.4 | 0.00 | 0.00 | 0.00 | 35 | 1018.0 |
| 20260831121945 | 18 | 178 | 6.4 | 6.4 | 0.00 | 0.00 | 0.00 | 34 | 1018.0 |
| 20260831120137 | 18 | 185 | 6.4 | 6.4 | 0.00 | 0.00 | 0.00 | 34 | 1018.0 |
| 20260831114934 | 18 | 193 | 8.0 | 8.0 | 0.00 | 0.00 | 0.00 | 34 | 1018.0 |
| 20260831114333 | 18 | 172 | 4.8 | 4.8 | 0.00 | 0.00 | 0.00 | 35 | 1018.0 |
| 20260831113729 | 18 | 252 | 3.2 | 6.4 | 0.00 | 0.00 | 0.00 | 37 | 1018.0 |
| 20260831112524 | 17 | 187 | 6.4 | 6.4 | 0.00 | 0.00 | 0.00 | 39 | 1018.0 |
| 20260831111920 | 17 | 179 | 8.0 | 8.0 | 0.00 | 0.00 | 0.00 | 39 | 1018.0 |
| 20260831110112 | 17 | 156 | 3.2 | 9.7 | 0.00 | 0.00 | 0.00 | 41 | 1018.0 |
| 20260831105512 | 17 | 160 | 6.4 | 9.7 | 0.00 | 0.00 | 0.00 | 41 | 1018.0 |
| 20260831104910 | 17 | 168 | 8.0 | 8.0 | 0.00 | 0.00 | 0.00 | 44 | 1018.0 |
| 20260831104307 | 17 | 170 | 4.8 | 8.0 | 0.00 | 0.00 | 0.00 | 44 | 1018.0 |
| 20260831103707 | 17 | 156 | 4.8 | 11.3 | 0.00 | 0.00 | 0.00 | 45 | 1018.0 |
| 20260831102503 | 16 | 175 | 9.7 | 9.7 | 0.00 | 0.00 | 0.00 | 47 | 1018.0 |
| 20260831101859 | 16 | 172 | 4.8 | 4.8 | 0.00 | 0.00 | 0.00 | 49 | 1018.0 |
| 20260831100054 | 16 | 295 | 3.2 | 6.4 | 0.00 | 0.00 | 0.00 | 49 | 1018.0 |
| 20260831095453 | 16 | 162 | 4.8 | 4.8 | 0.00 | 0.00 | 0.00 | 49 | 1018.0 |
| 20260831094846 | 16 | 170 | 4.8 | 6.4 | 0.00 | 0.00 | 0.00 | 48 | 1018.0 |
| 20260831094244 | 16 | 170 | 4.8 | 8.0 | 0.00 | 0.00 | 0.00 | 48 | 1018.0 |
| 20260831093039 | 16 | 155 | 8.0 | 8.0 | 0.00 | 0.00 | 0.00 | 48 | 1018.0 |
| 20260831092435 | 16 | 182 | 4.8 | 6.4 | 0.00 | 0.00 | 0.00 | 49 | 1018.0 |
| 20260831091228 | 16 | 199 | 3.2 | 4.8 | 0.00 | 0.00 | 0.00 | 54 | 1018.0 |
| 20260831090627 | 16 | 193 | 4.8 | 6.4 | 0.00 | 0.00 | 0.00 | 55 | 1018.0 |
| 20260831084217 | 16 | 333 | 3.2 | 4.8 | 0.00 | 0.00 | 0.00 | 57 | 1018.0 |
| 20260831083614 | 16 | 201 | 8.0 | 8.0 | 0.00 | 0.00 | 0.00 | 56 | 1018.0 |
| 20260831083012 | 16 | 174 | 6.4 | 8.0 | 0.00 | 0.00 | 0.00 | 56 | 1018.0 |
| 20260831081801 | 16 | 154 | 4.8 | 4.8 | 0.00 | 0.00 | 0.00 | 59 | 1018.0 |
| 20260831075953 | 16 | 185 | 3.2 | 4.8 | 0.00 | 0.00 | 0.00 | 63 | 1017.0 |
| 20260831072942 | 16 | 172 | 4.8 | 4.8 | 0.00 | 0.00 | 0.00 | 63 | 1017.0 |
| 20260831072339 | 16 | 185 | 3.2 | 6.4 | 0.00 | 0.00 | 0.00 | 64 | 1017.0 |
| 20260831071736 | 16 | 145 | 4.8 | 9.7 | 0.00 | 0.00 | 0.00 | 65 | 1017.0 |
| 20260831065930 | 16 | 160 | 0.0 | 4.8 | 0.00 | 0.00 | 0.00 | 64 | 1017.0 |
| 20260831064724 | 15 | 173 | 0.0 | 0.0 | 0.00 | 0.00 | 0.00 | 61 | 1017.0 |
| 20260831063520 | 15 | 168 | 0.0 | 0.0 | 0.00 | 0.00 | 0.00 | 61 | 1017.0 |
| 20260831062916 | 15 | 168 | 0.0 | 0.0 | 0.00 | 0.00 | 0.00 | 60 | 1017.0 |
| 20260831062313 | 15 | 169 | 0.0 | 0.0 | 0.00 | 0.00 | 0.00 | 60 | 1017.0 |
| 20260831061713 | 15 | 168 | 0.0 | 0.0 | 0.00 | 0.00 | 0.00 | 60 | 1017.0 |
| 20260831061114 | 15 | 169 | 0.0 | 0.0 | 0.00 | 0.00 | 0.00 | 60 | 1017.0 |
| 20260831060511 | 14 | 169 | 0.0 | 0.0 | 0.00 | 0.00 | 0.00 | 60 | 1017.0 |
| 20260831055908 | 14 | 168 | 0.0 | 0.0 | 0.00 | 0.00 | 0.00 | 60 | 1017.0 |
| 20260831055307 | 14 | 168 | 0.0 | 0.0 | 0.00 | 0.00 | 0.00 | 59 | 1017.0 |
| 20260831054705 | 14 | 168 | 0.0 | 0.0 | 0.00 | 0.00 | 0.00 | 59 | 1017.0 |
| 20260831050458 | 14 | 169 | 0.0 | 0.0 | 0.00 | 0.00 | 0.00 | 57 | 1016.0 |
| 20260831045248 | 15 | 168 | 0.0 | 0.0 | 0.00 | 0.00 | 0.00 | 57 | 1016.0 |
| 20260831044649 | 15 | 169 | 0.0 | 0.0 | 0.00 | 0.00 | 0.00 | 58 | 1016.0 |